Willimantic, CT

3:45 AM EDT on August 24, 2019 (GMT -0400)
Windham

Weather History for KIJD - June, 2019

Change the Weather History Date:

Tuesday, June 4, 2019

  Actual Average Record
Temperature  
Mean Temperature 54 °F -  
Max Temperature 68 °F 73 °F 89 °F (1952)
Min Temperature 39 °F 50 °F 36 °F (1955)
Degree Days  
Heating Degree Days 12    
Growing Degree Days 4 (Base 50)    
Moisture  
Dew Point 41 °F    
Average Humidity 58    
Maximum Humidity 93    
Minimum Humidity 33    
Precipitation  
Precipitation 0.00 in - - ()
Sea Level Pressure  
Sea Level Pressure 30.03 in    
Wind  
Wind Speed 4 mph ()    
Max Wind Speed 10 mph    
Max Gust Speed 17 mph    
Visibility 10.0 miles    
Events      
Averages and records for this station are not official NWS values.
T = Trace of Precipitation, MM = Missing Value Source: Averaged Metar Reports

Daily Weather History Graph

Daily Weather History Graph

Search for Another Location

Airport or City:

Astronomy

Jun. 04, 2019 Rise Set
Actual Time 5:15 AM EDT 8:19 PM EDT
Civil Twilight 4:41 AM EDT 8:52 PM EDT
Nautical Twilight 3:58 AM EDT 9:35 PM EDT
Astronomical Twilight 3:08 AM EDT 10:26 PM EDT
Moon 6:22 AM EDT (6/4) 9:44 PM EDT (6/4)
Length of Visible Light 16h 10m
Length of Day
15h 03m
New Moon, 2% of the Moon is Illuminated
Jun 4
New Moon
Jun 10
First Quarter
Jun 17
Full
Jun 25
Last Quarter
Jul 2
New

Hourly Weather History & Observations

Time (EDT) Temp. Dew Point Humidity Pressure Visibility Wind Dir Wind Speed Gust Speed Precip Events Conditions
12:52 AM 46.9 °F 41.0 °F 80% 30.03 in 10.0 mi ENE 5.8 mph - N/A   Clear
1:52 AM 46.9 °F 39.0 °F 74% 30.04 in 10.0 mi Calm Calm - N/A   Clear
2:52 AM 44.1 °F 39.9 °F 85% 30.04 in 10.0 mi Calm Calm - N/A   Clear
3:52 AM 42.1 °F 39.0 °F 89% 30.06 in 10.0 mi Calm Calm - N/A   Clear
4:52 AM 39.9 °F 37.9 °F 93% 30.06 in 10.0 mi Calm Calm - N/A   Clear
5:52 AM 41.0 °F 39.0 °F 93% 30.07 in 10.0 mi Calm Calm - N/A   Clear
6:52 AM 46.0 °F 42.1 °F 86% 30.09 in 10.0 mi Calm Calm - N/A   Clear
7:52 AM 53.1 °F 42.1 °F 66% 30.09 in 10.0 mi West 4.6 mph - N/A   Clear
8:52 AM 55.9 °F 39.0 °F 53% 30.10 in 10.0 mi NW 10.4 mph - N/A   Clear
9:52 AM 59.0 °F 39.9 °F 49% 30.09 in 10.0 mi WNW 10.4 mph - N/A   Clear
10:52 AM 61.0 °F 39.9 °F 46% 30.09 in 10.0 mi WSW 8.1 mph - N/A   Clear
11:52 AM 64.0 °F 39.0 °F 40% 30.07 in 10.0 mi WSW 9.2 mph - N/A   Partly Cloudy
12:52 PM 64.9 °F 37.9 °F 37% 30.05 in 10.0 mi Variable 6.9 mph - N/A   Scattered Clouds
1:52 PM 66.9 °F 37.9 °F 34% 30.03 in 10.0 mi West 9.2 mph 17.3 mph N/A   Mostly Cloudy
2:52 PM 66.9 °F 37.0 °F 33% 30.01 in 10.0 mi WSW 8.1 mph - N/A   Mostly Cloudy
3:52 PM 68.0 °F 37.9 °F 33% 30.00 in 10.0 mi West 8.1 mph 16.1 mph N/A   Partly Cloudy
4:52 PM 66.9 °F 39.0 °F 36% 29.99 in 10.0 mi West 10.4 mph - N/A   Partly Cloudy
5:52 PM 66.0 °F 39.0 °F 37% 29.99 in 10.0 mi West 9.2 mph - N/A   Clear
6:52 PM 66.9 °F 39.9 °F 37% 29.99 in 10.0 mi WSW 4.6 mph - N/A   Clear
7:52 PM 64.0 °F 43.0 °F 46% 29.99 in 10.0 mi South 5.8 mph - N/A   Mostly Cloudy
8:52 PM 61.0 °F 43.0 °F 52% 29.99 in 10.0 mi South 4.6 mph - N/A   Clear
9:52 PM 61.0 °F 46.0 °F 58% 29.99 in 10.0 mi SSW 6.9 mph - N/A   Partly Cloudy
10:52 PM 60.1 °F 48.0 °F 64% 29.98 in 10.0 mi SSW 6.9 mph - N/A   Mostly Cloudy
11:52 PM 60.1 °F 48.0 °F 64% 29.98 in 10.0 mi Variable 3.5 mph - N/A   Overcast